This demonstration page uses our WeatherBlox Daily Observations layout. Learn more.

Left ArrowRight Arrow

Hourly Observations for March 11, 2021

Temp ( °F °C ) Dew Point ( °F °C ) Humidity (%) Winds ( mph kmh ) Pressure ( in mb ) Visibility ( mi km ) Precip ( " mm )
12:54 am 00:54 Clear 36 2.2 26 -3.3 67 67 NW 12 19 29.99 1016 10 16 N/A
1:54 am 01:54 Clear 36 2.2 26 -3.3 67 67 N N/A 30.04 1017 10 16 N/A
2:54 am 02:54 Clear 36 2.2 26 -3.3 67 67 W 6 9 30.08 1019 10 16 N/A
3:54 am 03:54 Clear 35 1.7 26 -3.3 70 70 WNW 5 7 30.08 1019 10 16 N/A
4:54 am 04:54 Clear 35 1.7 26 -3.3 70 70 NW 7 11 30.09 1019 10 16 N/A
5:54 am 05:54 Clear 35 1.7 27 -2.8 72 72 NW 9 15 30.13 1020 10 16 N/A
6:54 am 06:54 Sunny 33 0.6 26 -3.3 75 75 NW 12 19 30.16 1021 10 16 N/A
7:54 am 07:54 Mostly Sunny 35 1.7 27 -2.8 72 72 NW 5 7 30.19 1022 10 16 N/A
8:31 am 08:31 Mostly Cloudy 37 2.8 28 -2.2 70 70 NW 9 15 30.24 1024 10 16 N/A
8:40 am 08:40 Partly Cloudy 37 2.8 28 -2.2 70 70 NNW 13 20 30.24 1024 10 16 N/A
8:54 am 08:54 Partly Cloudy 38 3.3 28 -2.2 68 68 N 13 20 30.22 1023 10 16 N/A
9:54 am 09:54 Sunny 43 6.1 29 -1.7 58 58 N 10 17 30.22 1024 10 16 N/A
10:54 am 10:54 Sunny 48 8.9 30 -1.1 50 50 N 13 20 30.22 1024 10 16 N/A
11:54 am 11:54 Sunny 51 10.6 30 -1.1 44 44 undefined N/A 30.24 1024 10 16 N/A
12:54 pm 12:54 Sunny 54 12.2 29 -1.7 38 38 NNW 12 19 30.22 1023 10 16 N/A
1:54 pm 13:54 Sunny 55 12.8 27 -2.8 34 34 VRB 3 6 30.21 1023 10 16 N/A
2:54 pm 14:54 Sunny 57 13.9 25 -3.9 29 29 VRB 3 6 30.20 1023 10 16 N/A
3:54 pm 15:54 Sunny 58 14.4 23 -5 26 26 NW 3 6 30.20 1023 10 16 N/A
4:54 pm 16:54 Sunny 56 13.3 23 -5 28 28 NE 6 9 30.20 1023 10 16 N/A
5:54 pm 17:54 Sunny 53 11.7 24 -4.4 32 32 NNE 10 17 30.21 1023 10 16 N/A
6:54 pm 18:54 Clear 46 7.8 23 -5 40 40 NE 7 11 30.25 1024 10 16 N/A
7:54 pm 19:54 Clear 41 5 24 -4.4 51 51 ENE 7 11 30.28 1025 10 16 N/A
8:54 pm 20:54 Clear 37 2.8 24 -4.4 59 59 N 5 7 30.30 1026 10 16 N/A
9:54 pm 21:54 Clear 40 4.4 25 -3.9 55 55 NNW 3 6 30.33 1027 10 16 N/A
10:54 pm 22:54 Clear 38 3.3 25 -3.9 60 60 NNW 3 6 30.35 1028 10 16 N/A
11:54 pm 23:54 Clear 37 2.8 25 -3.9 62 62 NW 3 6 30.37 1028 10 16 N/A

Powered by AerisWeather